Weather in Arbuzinka

Ukraine / Mykolaiv District     47°54′24″N   31°18′48″E
temp.,
°C
wind,
m/s
gust,
m/s
humid.,
%
clouds,
%
prec.,
mm/h
press.,
hPa
HPBL,
m
8 august, mon
mon800:00+23n595966 0.0 1016232
03:00+21nne476823 0.0 1017145
06:00+19nne478622 0.0 1017160
09:00+25nne455530 0.0 1018488
12:00+32nne34265 0.0 10172228
15:00+34ne44209 0.0 10163315
18:00+33ne442240 0.0 10163020
21:00+27ne612350 0.0 1017310
9 august, tue
tue900:00+22ne612570 0.0 1018277
03:00+20ne511650 0.0 1018236
06:00+19nne612774 0.0 1019256
09:00+26ne78470 0.0 1018536
12:00+32ne55280 0.0 10171551
15:00+34nne532139 0.0 10163590
18:00+31nne81030100 0.0 1015985
21:00+26nne1015420 0.0 1016607
10 august, wed
wed1000:00+20nne8155523 0.0 1017465
03:00+19n8156278 0.0 1017467
06:00+19n8156567 0.0 1017499
09:00+23nne9125121 0.1 1017666
12:00+28nne9103798 0.0 10161454
15:00+30nne8834100 0.0 10152115
18:00+28nne883597 0.0 10152080
21:00+22nne8135398 0.0 1016664
11 august, thu
thu1100:00+19n714645 0.0 1016487
03:00+17n815765 0.0 1014349
06:00+16n714805 0.0 1014466
09:00+23nne7105648 0.0 1014711
12:00+30ne773566 0.0 10131320
15:00+32ne572958 0.0 10122403
18:00+26n794249 0.1 1013207
21:00+21nne111669100 0.4 1014349
12 august, fri
fri1200:00+21ne61262100 0.0 1014234
03:00+22ne81664100 0.0 1014456
06:00+22ne61368100 0.0 1015452
09:00+26ne78505 0.2 1015940
12:00+30ne873877 0.0 10142146
15:00+29ne6640100 0.1 10132235
18:00+28ne774578 0.1 10141781
21:00+23nne711662 0.2 1014388